Jefferson, NC

7:27 PM EDT on April 30, 2017 (GMT -0400)
Ashe County

Weather History for KGEV - March, 2014

Change the Weather History Date:

Wednesday, March 12, 2014

  Actual Average Record
Temperature  
Mean Temperature 44 °F -  
Max Temperature 61 °F 54 °F 74 °F (1990)
Min Temperature 27 °F 32 °F 13 °F (1969)
Degree Days  
Heating Degree Days 20    
Moisture  
Dew Point 37 °F    
Average Humidity 65    
Maximum Humidity 92    
Minimum Humidity 33    
Precipitation  
Precipitation 0.06 in - - ()
Sea Level Pressure  
Sea Level Pressure 29.53 in    
Wind  
Wind Speed 9 mph (West)    
Max Wind Speed 34 mph    
Max Gust Speed 59 mph    
Visibility 8 miles    
Events Rain , Snow    
Averages and records for this station are not official NWS values.
T = Trace of Precipitation, MM = Missing Value Source: NWS Daily Summary

Daily Weather History Graph

Daily Weather History Graph

Search for Another Location

Airport or City:

Trip Planner

Search our weather history database for the weather conditions in past years. The results will help you decide how hot, cold, wet, or windy it might be!

Date:

Astronomy

Mar. 12, 2014 Rise Set
Actual Time 7:40 AM EDT 7:30 PM EDT
Civil Twilight 7:15 AM EDT 7:56 PM EDT
Nautical Twilight 6:45 AM EDT 8:26 PM EDT
Astronomical Twilight 6:15 AM EDT 8:56 PM EDT
Moon 4:04 PM EDT (3/12) 5:06 AM EDT (3/12)
Length of Visible Light 12h 40m
Length of Day
11h 49m
Waxing Gibbous, 85% of the Moon is Illuminated
Mar 12
Waxing Gibbous
Mar 16
Full
Mar 23
Last Quarter
Mar 30
New
Apr 7
First Quarter

Hourly Weather History & Observations

Time (EDT) Temp. Windchill Dew Point Humidity Pressure Visibility Wind Dir Wind Speed Gust Speed Precip Events Conditions
12:15 AM 59.9 °F - 30.7 °F 33% 29.74 in 10.0 mi West 13.8 mph - N/A   Scattered Clouds
12:35 AM 59.4 °F - 32.0 °F 36% 29.73 in 10.0 mi West 10.4 mph - N/A   Scattered Clouds
12:55 AM 59.9 °F - 32.5 °F 36% 29.73 in 10.0 mi West 12.7 mph 18.4 mph N/A   Mostly Cloudy
1:15 AM 59.5 °F - 33.3 °F 37% 29.72 in 10.0 mi WSW 6.9 mph - N/A   Scattered Clouds
1:35 AM 58.6 °F - 33.4 °F 39% 29.71 in 10.0 mi Calm Calm - N/A   Scattered Clouds
1:55 AM 59.0 °F - 34.5 °F 40% 29.71 in 10.0 mi Calm Calm - N/A   Scattered Clouds
2:15 AM 59.2 °F - 35.6 °F 41% 29.70 in 10.0 mi West 3.5 mph - N/A   Scattered Clouds
2:35 AM 58.8 °F - 36.1 °F 43% 29.69 in 10.0 mi WNW 3.5 mph - N/A   Mostly Cloudy
2:55 AM 58.6 °F - 36.1 °F 43% 29.68 in 10.0 mi Calm Calm - N/A   Scattered Clouds
3:15 AM 58.5 °F - 36.0 °F 43% 29.67 in 10.0 mi Calm Calm - N/A   Mostly Cloudy
3:35 AM 56.8 °F - 36.3 °F 46% 29.64 in 10.0 mi Calm Calm - N/A   Overcast
3:55 AM 55.9 °F - 35.1 °F 45% 29.63 in 10.0 mi Calm Calm - N/A   Mostly Cloudy
4:15 AM 53.4 °F - 34.0 °F 48% 29.63 in 10.0 mi ESE 3.5 mph - N/A   Mostly Cloudy
4:35 AM 53.8 °F - 34.0 °F 47% 29.61 in 10.0 mi Calm Calm - N/A   Mostly Cloudy
4:55 AM 54.0 °F - 34.0 °F 47% 29.60 in 10.0 mi Calm Calm - N/A   Mostly Cloudy
5:15 AM 54.0 °F - 33.8 °F 46% 29.60 in 10.0 mi Calm Calm - N/A   Overcast
5:35 AM 54.7 °F - 34.0 °F 46% 29.59 in 10.0 mi Calm Calm - N/A   Overcast
5:55 AM 54.0 °F - 34.2 °F 47% 29.59 in 10.0 mi Calm Calm - N/A   Overcast
6:15 AM 53.6 °F - 37.4 °F 54% 29.58 in 10.0 mi SSE 4.6 mph - N/A   Overcast
6:35 AM 52.5 °F - 38.5 °F 59% 29.57 in 10.0 mi SSE 3.5 mph - N/A   Overcast
6:55 AM 51.8 °F - 39.0 °F 62% 29.56 in 10.0 mi SSE 4.6 mph - N/A   Overcast
7:15 AM 54.5 °F - 41.2 °F 61% 29.56 in 10.0 mi Calm Calm - N/A   Overcast
7:35 AM 53.8 °F - 41.9 °F 64% 29.55 in 10.0 mi SSE 4.6 mph - N/A   Mostly Cloudy
7:55 AM 54.1 °F - 42.6 °F 65% 29.55 in 10.0 mi SE 3.5 mph - N/A   Light Drizzle
8:15 AM 53.8 °F - 43.9 °F 69% 29.54 in 10.0 mi SSE 3.5 mph - N/A   Drizzle
8:35 AM 52.9 °F - 45.0 °F 74% 29.53 in 10.0 mi Calm Calm - N/A   Drizzle
8:55 AM 52.0 °F - 46.2 °F 81% 29.53 in 7.0 mi Calm Calm - N/A Rain Light Rain
9:15 AM 51.1 °F - 48.4 °F 90% 29.53 in 5.0 mi Calm Calm - N/A Rain Light Rain
9:35 AM 51.4 °F - 49.1 °F 92% 29.52 in 4.0 mi Calm Calm - N/A   Drizzle
9:55 AM 51.8 °F - 49.6 °F 92% 29.51 in 4.0 mi South 3.5 mph - N/A   Light Drizzle
10:15 AM 51.8 °F - 49.6 °F 92% 29.50 in 4.0 mi SSE 3.5 mph - N/A Rain Rain
10:35 AM 52.5 °F - 50.4 °F 92% 29.49 in 5.0 mi South 4.6 mph - N/A   Overcast
10:55 AM 53.6 °F - 51.1 °F 91% 29.48 in 5.0 mi SSE 3.5 mph - N/A   Light Drizzle
11:15 AM 53.6 °F - 50.5 °F 89% 29.46 in 7.0 mi SSE 3.5 mph - N/A   Overcast
11:35 AM 53.4 °F - 50.9 °F 91% 29.45 in 3.0 mi SSE 3.5 mph - N/A Rain Rain
11:55 AM 53.8 °F - 51.4 °F 92% 29.44 in 5.0 mi SSE 4.6 mph - N/A   Overcast
12:15 PM 54.0 °F - 51.6 °F 92% 29.43 in 5.0 mi Calm Calm - N/A   Light Drizzle
12:35 PM 55.4 °F - 52.3 °F 89% 29.43 in 5.0 mi SW 6.9 mph - N/A   Overcast
12:55 PM 55.9 °F - 49.6 °F 79% 29.42 in 7.0 mi WSW 10.4 mph 32.2 mph N/A Rain Light Rain
1:15 PM 58.6 °F - 46.2 °F 63% 29.41 in 10.0 mi WSW 12.7 mph 31.1 mph N/A   Overcast
1:35 PM 59.7 °F - 45.7 °F 60% 29.40 in 10.0 mi WSW 12.7 mph 26.5 mph N/A   Overcast
1:55 PM 60.3 °F - 44.4 °F 56% 29.38 in 10.0 mi WSW 10.4 mph 26.5 mph N/A   Overcast
2:15 PM 60.1 °F - 43.7 °F 55% 29.36 in 10.0 mi WSW 17.3 mph 31.1 mph N/A   Overcast
2:35 PM 60.6 °F - 42.6 °F 52% 29.34 in 10.0 mi West 24.2 mph 38.0 mph N/A   Overcast
2:55 PM 61.3 °F - 41.5 °F 48% 29.32 in 10.0 mi West 16.1 mph 31.1 mph N/A   Overcast
3:15 PM 61.7 °F - 41.9 °F 48% 29.31 in 10.0 mi SW 12.7 mph 28.8 mph N/A   Overcast
3:35 PM 56.1 °F - 47.1 °F 72% 29.35 in 4.0 mi West 20.7 mph 48.3 mph 0.05 in Rain Heavy Rain
3:55 PM 54.5 °F - 45.3 °F 71% 29.37 in 10.0 mi West 23.0 mph 48.3 mph 0.05 in   Overcast
4:15 PM 53.6 °F - 43.0 °F 67% 29.37 in 10.0 mi West 29.9 mph 48.3 mph N/A   Overcast
4:35 PM 50.7 °F - 42.6 °F 74% 29.39 in 10.0 mi WNW 23.0 mph 32.2 mph N/A Rain Light Rain
4:55 PM 49.8 °F - 40.8 °F 71% 29.40 in 10.0 mi West 19.6 mph 29.9 mph N/A Rain Light Rain
5:15 PM 46.8 °F - 38.5 °F 73% 29.40 in 7.0 mi WNW 29.9 mph 38.0 mph N/A   Drizzle
5:35 PM 43.2 °F 33.2 °F 35.2 °F 74% 29.43 in 7.0 mi WNW 27.6 mph 46.0 mph N/A   Light Drizzle
5:55 PM 41.7 °F 30.1 °F 34.0 °F 74% 29.43 in 10.0 mi West 34.5 mph 52.9 mph N/A   Overcast
6:15 PM 39.7 °F 31.9 °F 33.3 °F 78% 29.46 in 5.0 mi NW 13.8 mph 39.1 mph N/A Rain Rain
6:35 PM 35.2 °F 28.1 °F 29.5 °F 80% 29.50 in 4.0 mi NW 9.2 mph 36.8 mph 0.01 in Rain Light Rain
6:55 PM 34.7 °F 25.1 °F 26.2 °F 71% 29.50 in 10.0 mi NW 15.0 mph 41.4 mph 0.01 in   Overcast
7:15 PM 34.9 °F 24.9 °F 25.7 °F 69% 29.51 in 10.0 mi NW 16.1 mph 41.4 mph N/A   Overcast
7:35 PM 34.5 °F 24.5 °F 25.0 °F 68% 29.52 in 10.0 mi NW 16.1 mph 31.1 mph N/A   Overcast
7:55 PM 34.2 °F 24.0 °F 24.6 °F 68% 29.52 in 10.0 mi WNW 16.1 mph 46.0 mph N/A Snow Light Snow
8:15 PM 32.9 °F 20.7 °F 24.4 °F 71% 29.52 in 10.0 mi NW 21.9 mph 41.4 mph N/A Snow Light Snow
8:35 PM 32.0 °F 18.1 °F 23.5 °F 71% 29.53 in 10.0 mi NW 27.6 mph 47.2 mph N/A Snow Light Snow
8:55 PM 32.0 °F 19.5 °F 22.6 °F 68% 29.55 in 7.0 mi NW 21.9 mph 42.6 mph N/A Snow Light Snow
9:15 PM 31.1 °F 16.9 °F 21.9 °F 69% 29.55 in 7.0 mi NW 27.6 mph 46.0 mph N/A Snow Light Snow
9:35 PM 30.7 °F 15.7 °F 21.6 °F 69% 29.54 in 10.0 mi NW 31.1 mph 49.5 mph N/A Snow Light Snow
9:55 PM 30.6 °F 15.9 °F 20.3 °F 66% 29.53 in 10.0 mi WNW 28.8 mph 46.0 mph N/A   Mostly Cloudy
10:15 PM 30.2 °F 15.9 °F 20.3 °F 67% 29.55 in 10.0 mi NW 26.5 mph 47.2 mph N/A Snow Light Snow
10:35 PM 30.0 °F 16.9 °F 19.9 °F 66% 29.54 in 10.0 mi WNW 21.9 mph 58.7 mph N/A Snow Light Snow
10:55 PM 29.3 °F 16.2 °F 20.1 °F 69% 29.55 in 10.0 mi WNW 20.7 mph 56.4 mph N/A   Overcast
11:15 PM 29.3 °F 17.0 °F 20.3 °F 69% 29.56 in 5.0 mi NW 18.4 mph 52.9 mph N/A Snow Light Snow
11:35 PM 28.2 °F 15.9 °F 22.3 °F 78% 29.59 in 1.5 mi NW 17.3 mph 27.6 mph N/A Snow Light Snow
11:55 PM 27.3 °F 12.1 °F 21.0 °F 77% 29.59 in 1.5 mi NW 26.5 mph 44.9 mph N/A Snow Light Snow